DW6145 Weather Reports


Display with metric or nautical units.
time (UTC)temp
F
wind
direction
speed
MPH
gust
MPH
rain 1hr
in
rain 24hr
in
rain mn
in
humidity
%
barometer
mb
20260506231037 59 136 1.0 5.0 0.01 1.34 0.01 94 468.0
20260506230448 59 139 0.0 5.0 0.01 1.33 0.01 94 478.5
20260506224531 59 175 1.0 3.0 0.01 1.33 0.01 93 468.0
20260506224015 59 175 0.0 0.0 0.00 1.33 0.00 93 467.2
20260506222532 59 175 0.0 0.0 0.00 1.33 0.00 93 467.9
20260506221531 59 175 0.0 0.0 0.00 1.34 0.00 93 466.9
20260506220530 59 175 0.0 0.0 0.00 1.35 0.00 93 468.0
20260506215524 58 175 0.0 0.0 0.00 1.35 1.35 92 468.0
20260506214523 59 175 0.0 0.0 0.00 1.35 1.35 92 467.9
20260506213524 59 175 0.0 0.0 0.00 1.35 1.35 92 468.0
20260506212516 59 175 0.0 0.0 0.00 1.37 1.35 92 468.0
20260506211517 59 175 0.0 0.0 0.00 1.37 1.35 92 468.0
20260506210516 59 175 0.0 0.0 0.00 1.37 1.35 92 465.0
20260506205516 59 175 0.0 0.0 0.00 1.37 1.35 92 468.0
20260506204516 59 175 0.0 0.0 0.00 1.37 1.35 92 468.0
20260506203510 59 175 0.0 0.0 0.00 1.37 1.35 92 456.4
20260506202947 59 175 1.0 6.0 0.00 1.37 1.35 91 473.5
20260506201510 59 160 2.0 6.0 0.00 1.37 1.35 92 468.0
20260506200510 60 158 2.0 7.0 0.00 1.37 1.35 93 473.3
20260506195505 60 159 0.0 5.0 0.00 1.38 1.35 93 619.6
20260506194507 60 184 2.0 6.0 0.00 1.40 1.35 94 468.0
20260506193506 60 180 1.0 6.0 0.01 1.41 1.35 94 479.7
20260506192506 60 159 1.0 7.0 0.06 1.42 1.35 94 467.2
20260506191502 61 171 1.0 6.0 0.06 1.42 1.35 94 468.0
20260506190504 61 186 3.0 7.0 0.06 1.43 1.35 93 494.6
20260506185505 61 180 3.0 10.0 0.06 1.38 1.35 93 468.3
20260506184504 61 191 3.0 9.0 0.06 1.38 1.35 93 468.1
20260506183503 61 215 5.0 14.0 0.06 1.38 1.33 93 468.0
20260506182946 61 198 3.0 10.0 0.00 1.38 1.28 93 468.0
20260506181501 61 221 4.0 9.0 0.00 1.39 1.28 93 468.1
20260506180456 61 209 2.0 6.0 0.00 1.39 1.28 93 468.1
20260506175458 61 213 2.0 7.0 0.00 1.39 1.28 93 464.0
20260506174452 61 198 1.0 5.0 0.00 1.39 1.28 93 468.0
20260506173454 60 207 0.0 3.0 0.00 1.39 1.28 93 453.1
20260506172450 60 189 2.0 7.0 0.00 1.39 1.28 92 468.0
20260506171447 60 210 2.0 8.0 0.00 1.39 1.28 92 723.2
20260506170458 60 201 3.0 10.0 0.00 1.39 1.28 92 447.2
20260506165442 61 220 4.0 9.0 0.02 1.37 1.28 92 473.3
20260506164447 61 195 5.0 13.0 0.02 1.37 1.28 91 466.6
20260506163444 61 202 6.0 12.0 0.02 1.37 1.28 92 475.9
20260506163408 61 210 5.0 11.0 0.02 1.37 1.28 92 468.1
20260506161442 61 221 3.0 11.0 0.02 1.37 1.28 92 468.1
20260506160443 62 211 1.0 6.0 0.02 1.37 1.28 92 470.4
20260506155442 62 186 1.0 7.0 0.00 1.36 1.26 90 468.1
20260506154444 62 179 1.0 7.0 0.00 1.36 1.26 90 622.3
20260506153444 62 167 4.0 11.0 0.00 1.37 1.26 88 467.5
20260506152922 62 163 6.0 14.0 0.00 1.37 1.26 88 445.6
20260506152402 62 196 6.0 14.0 0.00 1.37 1.26 88 468.0
20260506150440 62 190 5.0 11.0 0.00 1.37 1.26 90 440.1
20260506145918 62 184 5.0 12.0 0.01 1.38 1.26 91 468.4
20260506144437 62 150 6.0 12.0 0.01 1.38 1.26 91 483.9
20260506143438 62 188 5.0 14.0 0.01 1.39 1.26 92 468.0
20260506142915 62 183 5.0 12.0 0.02 1.39 1.26 93 468.7
20260506141431 62 188 2.0 10.0 0.03 1.40 1.26 93 473.3
20260506140432 62 195 3.0 10.0 0.03 1.41 1.26 93 468.0
20260506135430 61 175 4.0 10.0 0.02 1.39 1.25 92 484.3
20260506134431 61 167 5.0 16.0 0.02 1.40 1.25 92 468.0
20260506133430 61 165 6.0 15.0 0.02 1.43 1.25 92 471.5
20260506132432 61 179 7.0 14.0 0.02 1.47 1.24 92 478.5
20260506131432 62 178 5.0 13.0 0.01 1.52 1.23 91 466.0
20260506130430 61 196 7.0 17.0 0.02 1.57 1.23 90 467.9
20260506125432 61 217 9.0 16.0 0.02 1.55 1.23 90 468.0
20260506124431 60 177 7.0 16.0 0.02 1.55 1.23 91 473.3
20260506123430 61 188 5.0 12.0 0.02 1.55 1.23 94 436.1
20260506122432 61 207 6.0 11.0 0.02 1.55 1.22 94 467.9
20260506121431 60 175 7.0 17.0 0.02 1.55 1.22 93 478.5
20260506120430 60 171 5.0 13.0 0.06 1.55 1.21 94 483.9
20260506115431 60 168 7.0 15.0 0.06 1.49 1.21 94 472.6
20260506114432 60 180 7.0 12.0 0.08 1.49 1.21 95 467.3
20260506113432 60 167 5.0 12.0 0.16 1.49 1.21 95 473.3
20260506112430 60 188 8.0 19.0 0.32 1.49 1.20 95 467.9
20260506111917 60 155 7.0 18.0 0.61 1.49 1.20 95 485.3
20260506110429 60 192 6.0 17.0 0.65 1.49 1.15 96 468.0
20260506105433 59 190 5.0 10.0 0.67 0.83 1.15 96 465.4
20260506104426 59 198 5.0 15.0 0.70 0.83 1.13 95 607.6
20260506103428 59 114 5.0 12.0 0.64 0.83 1.05 95 468.1
20260506102425 59 130 4.0 9.0 0.50 1.22 0.87 95 467.2
20260506101426 59 151 5.0 14.0 0.23 0.94 0.60 95 474.0
20260506100418 59 161 3.0 9.0 0.13 0.84 0.50 95 468.0
20260506095418 59 146 1.0 6.0 0.11 0.82 0.48 95 480.8
20260506094858 59 185 2.0 6.0 0.07 0.77 0.43 95 484.2
20260506093415 59 173 5.0 10.0 0.06 0.76 0.42 95 467.9
20260506092417 60 174 6.0 10.0 0.02 0.72 0.38 95 466.4
20260506091412 60 153 5.0 14.0 0.02 0.71 0.37 96 468.0
20260506090413 59 155 4.0 11.0 0.02 0.71 0.37 95 468.4
20260506085408 60 143 5.0 11.0 0.03 0.71 0.37 96 468.0
20260506084410 59 147 6.0 11.0 0.04 0.70 0.36 96 467.9
20260506083406 59 158 6.0 13.0 0.06 0.70 0.36 96 455.6
20260506082405 59 141 5.0 11.0 0.06 0.70 0.36 96 467.9
20260506081402 59 132 2.0 8.0 0.05 0.69 0.35 96 470.9
20260506080858 59 131 4.0 8.0 0.04 0.69 0.35 96 625.4
20260506073403 59 121 3.0 8.0 0.06 0.65 0.31 96 465.6
20260506072404 58 107 4.0 10.0 0.12 0.65 0.31 96 426.8
20260506071402 58 109 5.0 9.0 0.17 0.65 0.31 96 468.0
20260506070402 58 103 3.0 7.0 0.23 0.65 0.31 96 468.0
20260506062403 58 114 2.0 9.0 0.17 0.53 0.19 94 468.0
20260506061404 58 67 2.0 3.0 0.13 0.48 0.14 94 664.2
20260506060404 59 67 1.0 3.0 0.06 0.42 0.08 93 468.5
20260506051404 59 67 1.0 4.0 0.00 0.35 0.02 93 478.5
20260506050404 58 67 0.0 4.0 0.00 0.35 0.02 94 467.9
20260506044402 58 67 2.0 4.0 0.00 0.35 0.02 94 467.2
20260506043403 58 67 0.0 3.0 0.00 0.35 0.02 94 468.0
20260506042844 58 67 1.0 4.0 0.00 0.35 0.02 95 504.6
20260506041400 57 67 2.0 4.0 0.00 0.35 0.02 95 468.0
20260506040401 57 67 1.0 4.0 0.00 0.35 0.02 95 468.5
20260506035356 57 67 0.0 4.0 0.00 0.35 0.02 95 468.0
20260506034356 57 67 0.0 0.0 0.00 0.35 0.02 95 499.3
20260506033857 57 67 0.0 4.0 0.00 0.35 0.02 95 467.5
20260506032358 57 67 2.0 5.0 0.00 0.35 0.02 95 468.0
20260506031358 57 67 1.0 4.0 0.00 0.35 0.02 95 468.0
20260506030827 57 67 0.0 4.0 0.00 0.35 0.02 95 468.4
20260506025352 57 67 0.0 0.0 0.00 0.35 0.02 95 468.3
20260506024838 57 67 1.0 3.0 0.00 0.35 0.02 95 467.0
20260506023351 57 67 0.0 0.0 0.00 0.35 0.02 95 468.7
20260506023313 57 67 1.0 4.0 0.00 0.35 0.02 95 468.2
20260506021347 57 67 3.0 5.0 0.00 0.35 0.02 95 467.9
20260506020822 57 65 2.0 5.0 0.00 0.35 0.02 95 468.1
20260506015342 57 61 1.0 5.0 0.00 0.35 0.02 95 694.0
20260506014334 57 61 1.0 5.0 0.00 0.35 0.02 95 465.7
20260506013334 57 53 1.0 3.0 0.00 0.35 0.02 95 468.0
20260506012332 57 53 0.0 3.0 0.00 0.35 0.02 95 468.6
20260506011332 57 53 1.0 4.0 0.00 0.35 0.02 95 468.0
20260506010331 57 53 3.0 4.0 0.00 0.35 0.02 95 468.3
20260506005332 57 50 1.0 4.0 0.00 0.35 0.02 95 468.0
20260506004326 57 50 0.0 4.0 0.00 0.35 0.02 95 468.0
20260506003809 57 50 1.0 4.0 0.00 0.35 0.02 95 447.4
20260506002324 57 50 0.0 3.0 0.00 0.35 0.02 95 447.3
20260506001331 57 50 0.0 0.0 0.00 0.35 0.02 95 468.3
20260506000322 57 50 0.0 0.0 0.00 0.35 0.02 95 467.7
20260505235324 57 50 1.0 4.0 0.00 0.35 0.02 95 483.9
20260505234320 57 50 0.0 3.0 0.00 0.35 0.02 95 465.2
20260505233319 57 50 2.0 6.0 0.00 0.35 0.02 95 468.0
20260505232316 57 344 2.0 4.0 0.00 0.35 0.02 95 468.0